{"data":{"norad_id":65977,"epoch":"2026-05-25T05:09:06.986880Z","epoch_age_seconds":53566,"freshness":"FRESH","line1":"1 65977U 25230D   26145.21466420 -.00005308  00000+0 -50031-2 0  9997","line2":"2 65977  81.3001 233.2448 0001420  99.8503 260.2812 13.81496199 30618","mean_motion":13.81496199,"eccentricity":0.000142,"inclination_deg":81.3001,"raan_deg":233.2448,"arg_perigee_deg":99.8503,"mean_anomaly_deg":260.2812,"bstar":-0.0050031,"rev_number":3061,"period_min":104.23481447451,"perigee_km":957.54287817329,"apogee_km":959.62650713401,"semimajor_km":7336.7216926536,"source":"CELESTRAK","updated_at":"2026-05-25T13:38:05.876973Z"}}